Location: Newark
(58.9986°N, 38.5006°E)
Time: 04:56:39
(UTC+00:00)

N. Korean satellite - Pass Details

Date: 09 December 2019
Orbit: 454 x 507 km, 97.2° (Epoch: 22 January)

Event Time Altitude Azimuth Distance (km) Brightness Sun altitude
Rises 02:14:20 0° 26° (NNE) 2,578 10.6 -27.5°
Reaches altitude 10° 02:17:11 10° 50° (NE) 1,677 9.9 -27.2°
Maximum altitude 02:19:18 15° 87° (E) 1,385 9.7 -26.9°
Drops below altitude 10° 02:21:25 10° 123° (ESE) 1,650 10.0 -26.6°
Sets 02:24:10 0° 148° (SSE) 2,510 10.6 -26.3°
